STARLINK-35611

Last updated on Fri Dec 12 2025 00:02:05 GMT+0000 (Coordinated Universal Time)

1 66427U 25259F 25345.50694481 .00090287 00000+0 21388-2 0 9993 2 66427 42.9980 55.0641 0001271 253.1219 106.9498 15.40760964 5974
UTC large
Height (km)
Speed (km/s)
/
Latitude / Longitude
Inclination (degrees)
Orbital Period (minutes)
Azimuth
Elevation
Range (km)
Doppler Factor

Next 0 passes for location: London (51.5072 / 0.1276)

Sorry there are no passes over London.